GW6747 Weather Reports


Display with metric or nautical units.
time (UTC)temp
F
wind
direction
speed
MPH
gust
MPH
rain 1hr
in
rain 24hr
in
rain mn
in
humidity
%
barometer
mb
20260503203655 71 284 4.0 5.0 0.00 0.00 0.00 59 1012.5
20260503203153 71 286 4.0 5.0 0.00 0.00 0.00 59 1012.3
20260503202650 70 312 3.0 9.0 0.00 0.00 0.00 63 1012.5
20260503202148 69 278 6.0 8.0 0.00 0.00 0.00 61 1012.5
20260503201646 69 273 4.0 7.0 0.00 0.00 0.00 60 1012.6
20260503201143 70 268 2.0 8.0 0.00 0.00 0.00 60 1012.5
20260503200639 70 294 4.0 6.0 0.00 0.00 0.00 60 1012.8
20260503200135 69 275 4.0 8.0 0.00 0.00 0.00 58 1012.7
20260503195633 69 288 6.0 7.0 0.00 0.00 0.00 59 1012.9
20260503195129 69 279 6.0 8.0 0.00 0.00 0.00 60 1013.0
20260503194627 69 290 6.0 6.0 0.00 0.00 0.00 58 1013.2
20260503194121 68 314 4.0 5.0 0.00 0.00 0.00 61 1013.1
20260503193619 68 295 4.0 6.0 0.00 0.00 0.00 60 1013.3
20260503193114 68 304 4.0 5.0 0.00 0.00 0.00 61 1013.2
20260503192610 68 293 3.0 5.0 0.00 0.00 0.00 59 1013.2
20260503192106 69 290 4.0 5.0 0.00 0.00 0.00 61 1013.3
20260503191603 68 263 4.0 7.0 0.00 0.00 0.00 58 1013.4
20260503191100 68 297 4.0 6.0 0.00 0.00 0.00 59 1013.4
20260503190557 68 296 4.0 6.0 0.00 0.00 0.00 62 1013.6
20260503190054 67 282 4.0 7.0 0.00 0.00 0.00 61 1013.6
20260503185550 67 310 4.0 6.0 0.00 0.00 0.00 64 1013.6
20260503185050 68 274 7.0 8.0 0.00 0.00 0.00 62 1013.6
20260503184546 67 285 6.0 6.0 0.00 0.00 0.00 63 1013.6
20260503184043 66 319 5.0 6.0 0.00 0.00 0.00 65 1013.7
20260503183539 65 299 4.0 9.0 0.00 0.00 0.00 66 1013.9
20260503183037 66 286 6.0 6.0 0.00 0.00 0.00 65 1013.8
20260503182535 65 309 3.0 6.0 0.00 0.00 0.00 67 1013.8
20260503182033 65 276 5.0 7.0 0.00 0.00 0.00 66 1013.9
20260503181529 65 290 4.0 8.0 0.00 0.00 0.00 66 1013.8
20260503181026 65 282 5.0 10.0 0.00 0.00 0.00 66 1013.8
20260503180523 66 262 5.0 9.0 0.00 0.00 0.00 66 1014.0
20260503180020 66 309 3.0 10.0 0.00 0.00 0.00 65 1014.0
20260503175518 66 296 4.0 7.0 0.00 0.00 0.00 67 1013.9
20260503175015 65 274 7.0 9.0 0.00 0.00 0.00 64 1014.0
20260503174512 65 284 5.0 7.0 0.00 0.00 0.00 67 1014.1
20260503174008 65 294 4.0 7.0 0.00 0.00 0.00 68 1014.1
20260503173503 66 271 5.0 7.0 0.00 0.00 0.00 66 1014.2
20260503173000 65 298 5.0 7.0 0.00 0.00 0.00 69 1014.1
20260503172458 64 282 5.0 7.0 0.00 0.00 0.00 69 1014.2
20260503171954 64 277 5.0 9.0 0.00 0.00 0.00 68 1014.1
20260503171451 63 287 6.0 7.0 0.00 0.00 0.00 70 1014.3
20260503170948 63 274 6.0 9.0 0.00 0.00 0.00 71 1014.5
20260503170444 62 299 4.0 8.0 0.00 0.00 0.00 71 1014.3
20260503150837 58 282 8.0 8.0 0.00 0.00 0.00 79 1014.6
20260503150333 58 283 5.0 8.0 0.00 0.00 0.00 78 1014.7
20260503140257 56 253 2.0 6.0 0.00 0.00 0.00 82 1014.5
20260503131227 53 269 0.0 3.0 0.00 0.00 0.00 86 1014.0
20260503130724 53 330 1.0 2.0 0.00 0.00 0.00 86 1014.1
20260503130221 53 286 2.0 6.0 0.00 0.00 0.00 85 1014.2
20260503120147 52 275 0.0 2.0 0.00 0.00 0.00 86 1014.5
20260503110615 52 326 0.0 1.0 0.00 0.00 0.00 82 1014.3
20260503110112 52 333 0.0 2.0 0.00 0.00 0.00 82 1014.5
20260503090502 54 0 0.0 2.0 0.00 0.00 0.00 77 1014.6
20260503081428 56 304 1.0 2.0 0.00 0.00 0.00 72 1014.4
20260503080925 56 290 0.0 2.0 0.00 0.00 0.00 72 1014.3
20260503080421 55 354 0.0 1.0 0.00 0.00 0.00 72 1014.5
20260503072858 56 9 1.0 2.0 0.00 0.00 0.00 69 1014.3
20260503072355 57 358 1.0 2.0 0.00 0.00 0.00 68 1014.4
20260503071851 57 298 0.0 1.0 0.00 0.00 0.00 68 1014.3
20260503071349 57 320 2.0 2.0 0.00 0.00 0.00 68 1014.1
20260503070845 57 299 0.0 1.0 0.00 0.00 0.00 67 1014.2
20260503070343 58 335 0.0 2.0 0.00 0.00 0.00 67 1014.1
20260503060314 60 294 2.0 3.0 0.00 0.00 0.00 61 1014.2
20260503054801 60 301 1.0 2.0 0.00 0.00 0.00 61 1014.2
20260503054258 60 300 2.0 3.0 0.00 0.00 0.00 61 1014.1
20260503053755 61 269 2.0 3.0 0.00 0.00 0.00 60 1014.2
20260503053254 62 299 0.0 6.0 0.00 0.00 0.00 58 1014.2
20260503052749 62 287 2.0 7.0 0.00 0.00 0.00 57 1014.0
20260503052247 63 272 5.0 6.0 0.00 0.00 0.00 56 1014.2
20260503051742 63 284 8.0 9.0 0.00 0.00 0.00 55 1013.9
20260503051240 63 323 2.0 8.0 0.00 0.00 0.00 57 1014.0
20260503050736 63 289 7.0 8.0 0.00 0.00 0.00 56 1014.1
20260503050232 64 280 3.0 8.0 0.00 0.00 0.00 55 1013.9
20260503045730 63 295 3.0 5.0 0.00 0.00 0.00 55 1013.9
20260503045228 63 278 6.0 8.0 0.00 0.00 0.00 56 1013.9
20260503044724 63 273 4.0 8.0 0.00 0.00 0.00 56 1013.9
20260503044222 63 288 7.0 10.0 0.00 0.00 0.00 57 1013.8
20260503043718 63 282 2.0 10.0 0.00 0.00 0.00 57 1013.8
20260503043216 63 281 6.0 9.0 0.00 0.00 0.00 57 1013.7
20260503042711 63 276 4.0 11.0 0.00 0.00 0.00 57 1013.6
20260503042208 63 274 5.0 9.0 0.00 0.00 0.00 58 1013.6
20260503041704 63 275 2.0 10.0 0.00 0.00 0.00 59 1013.6
20260503041202 63 274 3.0 10.0 0.00 0.00 0.00 60 1013.4
20260503040659 62 258 4.0 8.0 0.00 0.00 0.00 61 1013.6
20260503040157 63 292 4.0 10.0 0.00 0.00 0.00 61 1013.4
20260503035653 63 284 6.0 9.0 0.00 0.00 0.00 60 1013.5
20260503035151 63 253 3.0 9.0 0.00 0.00 0.00 60 1013.6
20260503034648 63 295 2.0 8.0 0.00 0.00 0.00 60 1013.2
20260503034145 63 274 3.0 7.0 0.00 0.00 0.00 59 1013.4
20260503033642 63 289 4.0 6.0 0.00 0.00 0.00 60 1013.3
20260503033140 63 281 4.0 6.0 0.00 0.00 0.00 59 1013.1
20260503032638 64 273 3.0 5.0 0.00 0.00 0.00 58 1013.1
20260503032137 64 275 3.0 6.0 0.00 0.00 0.00 57 1013.2
20260503031633 64 290 7.0 10.0 0.00 0.00 0.00 55 1013.0
20260503031131 65 276 3.0 6.0 0.00 0.00 0.00 57 1013.0
20260503030627 65 278 5.0 7.0 0.00 0.00 0.00 54 1013.1
20260503030124 66 297 4.0 8.0 0.00 0.00 0.00 53 1013.0
20260503025620 66 290 5.0 9.0 0.00 0.00 0.00 52 1012.8
20260503025119 66 275 8.0 13.0 0.00 0.00 0.00 53 1012.9
20260503024615 66 262 4.0 12.0 0.00 0.00 0.00 54 1012.8
20260503024112 66 273 6.0 12.0 0.00 0.00 0.00 54 1012.8
20260503023609 67 280 9.0 12.0 0.00 0.00 0.00 52 1012.7
20260503023106 67 274 7.0 13.0 0.00 0.00 0.00 51 1012.7
20260503022601 67 276 9.0 10.0 0.00 0.00 0.00 51 1012.7
20260503022056 67 282 8.0 13.0 0.00 0.00 0.00 51 1012.9
20260503021554 67 280 8.0 14.0 0.00 0.00 0.00 51 1012.8
20260503021050 67 264 12.0 14.0 0.00 0.00 0.00 51 1012.9
20260503020547 67 285 9.0 13.0 0.00 0.00 0.00 51 1013.0
20260503020044 68 286 10.0 13.0 0.00 0.00 0.00 50 1013.0
20260503015541 68 285 12.0 15.0 0.00 0.00 0.00 49 1012.9
20260503015038 68 286 10.0 14.0 0.00 0.00 0.00 49 1013.0
20260503014534 68 287 8.0 16.0 0.00 0.00 0.00 50 1013.1
20260503014032 68 274 7.0 11.0 0.00 0.00 0.00 52 1013.1
20260503013529 68 285 9.0 11.0 0.00 0.00 0.00 51 1012.9
20260503013027 68 269 8.0 15.0 0.00 0.00 0.00 52 1013.1
20260503012524 68 263 7.0 12.0 0.00 0.00 0.00 52 1013.2
20260503012020 68 281 5.0 13.0 0.00 0.00 0.00 52 1013.2
20260503011517 68 276 9.0 14.0 0.00 0.00 0.00 52 1013.5
20260503011015 68 292 9.0 12.0 0.00 0.00 0.00 52 1013.3
20260503010510 68 269 8.0 12.0 0.00 0.00 0.00 53 1013.1
20260503010009 68 276 9.0 15.0 0.00 0.00 0.00 53 1013.4
20260503005505 68 266 8.0 10.0 0.00 0.00 0.00 54 1013.3
20260503005002 68 277 8.0 13.0 0.00 0.00 0.00 54 1013.3
20260503004458 69 256 8.0 13.0 0.00 0.00 0.00 53 1013.3
20260503003956 69 280 8.0 13.0 0.00 0.00 0.00 52 1013.2
20260503003453 69 265 7.0 13.0 0.00 0.00 0.00 53 1013.4
20260503002950 69 278 8.0 13.0 0.00 0.00 0.00 53 1013.5
20260503002447 69 281 9.0 13.0 0.00 0.00 0.00 52 1013.5
20260503001943 69 258 10.0 13.0 0.00 0.00 0.00 52 1013.2
20260503001440 69 251 10.0 13.0 0.00 0.00 0.00 52 1013.6
20260503000938 69 278 8.0 12.0 0.00 0.00 0.00 53 1013.5
20260503000437 69 280 8.0 12.0 0.00 0.00 0.00 53 1013.6
20260502235932 69 273 6.0 12.0 0.00 0.00 0.00 54 1013.7
20260502235428 69 285 8.0 10.0 0.00 0.00 0.00 56 1013.6
20260502234926 69 289 8.0 11.0 0.00 0.00 0.00 55 1013.7
20260502234422 69 266 8.0 13.0 0.00 0.00 0.00 56 1013.6
20260502233920 70 284 7.0 9.0 0.00 0.00 0.00 55 1013.8
20260502233415 70 293 9.0 10.0 0.00 0.00 0.00 54 1013.8
20260502232912 69 277 7.0 10.0 0.00 0.00 0.00 55 1013.9
20260502232408 69 283 5.0 11.0 0.00 0.00 0.00 55 1014.0
20260502231905 69 274 6.0 12.0 0.00 0.00 0.00 55 1013.9
20260502231403 69 274 10.0 12.0 0.00 0.00 0.00 56 1014.1
20260502230901 68 276 7.0 13.0 0.00 0.00 0.00 58 1014.1
20260502230359 68 271 9.0 10.0 0.00 0.00 0.00 56 1014.1
20260502225856 68 277 8.0 12.0 0.00 0.00 0.00 59 1014.3
20260502225352 68 291 10.0 12.0 0.00 0.00 0.00 57 1014.4
20260502224849 68 266 7.0 12.0 0.00 0.00 0.00 56 1014.2
20260502224345 67 274 8.0 14.0 0.00 0.00 0.00 59 1014.5
20260502223843 67 267 7.0 15.0 0.00 0.00 0.00 60 1014.6
20260502223341 67 274 8.0 14.0 0.00 0.00 0.00 61 1014.5
20260502222838 67 272 7.0 15.0 0.00 0.00 0.00 59 1014.7
20260502222336 66 282 7.0 16.0 0.00 0.00 0.00 61 1014.9
20260502221831 66 260 10.0 17.0 0.00 0.00 0.00 63 1014.9
20260502221327 66 277 8.0 16.0 0.00 0.00 0.00 63 1014.9
20260502220825 67 288 10.0 15.0 0.00 0.00 0.00 60 1015.0
20260502220320 67 259 10.0 16.0 0.00 0.00 0.00 60 1015.1
20260502215817 66 282 9.0 15.0 0.00 0.00 0.00 63 1015.0
20260502215315 66 278 5.0 13.0 0.00 0.00 0.00 63 1015.2
20260502214812 67 267 10.0 13.0 0.00 0.00 0.00 62 1015.1
20260502214308 66 266 9.0 15.0 0.00 0.00 0.00 62 1015.2
20260502213806 66 275 11.0 13.0 0.00 0.00 0.00 63 1015.5
20260502213303 66 288 9.0 12.0 0.00 0.00 0.00 63 1015.3
20260502212802 66 299 6.0 15.0 0.00 0.00 0.00 62 1015.6
20260502212259 66 286 9.0 11.0 0.00 0.00 0.00 64 1015.4
20260502211755 66 267 5.0 13.0 0.00 0.00 0.00 64 1015.7
20260502211252 65 301 5.0 15.0 0.00 0.00 0.00 66 1015.8
20260502210749 65 260 7.0 11.0 0.00 0.00 0.00 66 1015.6
20260502210247 65 275 5.0 12.0 0.00 0.00 0.00 67 1015.6
20260502205744 65 278 6.0 11.0 0.00 0.00 0.00 67 1015.5
20260502205239 65 284 6.0 11.0 0.00 0.00 0.00 68 1015.7
20260502204737 66 280 5.0 11.0 0.00 0.00 0.00 65 1015.9
20260502204234 66 274 7.0 9.0 0.00 0.00 0.00 63 1015.9